Tracking 27107 objects as of 21-Mar-2023
HD Live streaming from Space Station
objects crossing your sky now

OBJECT A

Track OBJECT A now!
10-day predictions


NORAD ID: 45249
Int'l Code: 2020-014A
Perigee: 396.1 km
Apogee: 408.0 km
Inclination: 35.0 °
Period: 92.5 minutes
Semi major axis: 6773 km
RCS: Unknown
Launch date: February 19, 2020
Source: People's Republic of China (PRC)
Launch site: Xichang Space Center, China (XSC)
Your satellite tracking list
Your tracking list is empty




NASA's NSSDC Master Catalog

Two Line Element Set (TLE):
1 45249U 20014A   23080.31171892  .00098606  00000-0  12799-2 0  9995
2 45249  35.0115  90.4392 0008771 173.1122 186.9725 15.57497024172875
Source of the keplerian elements: AFSPC